FW7889 Weather Reports


time (UTC)temp
C
wind
direction
speed
KPH
gust
KPH
rain 1hr
cm
rain 24hr
cm
rain mn
cm
humidity
%
barometer
mb
20260906072622 11 280 0.0 0.0 0.00 0.00 0.00 99 1070.0
20260906071620 11 307 0.0 0.0 0.00 0.00 0.00 99 1070.0
20260906070617 11 275 0.0 0.0 0.00 0.00 0.00 99 1069.9
20260906065612 11 295 0.0 0.0 0.00 0.00 0.00 99 1070.0
20260906064609 11 292 0.0 0.0 0.00 0.00 0.00 99 1069.9
20260906063604 11 297 0.0 0.0 0.00 0.00 0.00 99 1069.7
20260906062602 11 292 0.0 0.0 0.00 0.00 0.00 99 1069.8
20260906061557 11 292 0.0 0.0 0.00 0.00 0.00 99 1069.7
20260906060553 11 271 0.0 0.0 0.00 0.00 0.00 99 1069.6
20260906055551 11 285 0.0 0.0 0.00 0.00 0.00 99 1069.7
20260906054547 11 289 0.0 0.0 0.00 0.00 0.00 99 1069.4
20260906053544 12 292 0.0 0.0 0.00 0.00 0.00 99 1069.6
20260906052540 12 276 0.0 0.0 0.00 0.00 0.00 99 1069.4
20260906051538 12 272 0.0 0.0 0.00 0.00 0.00 99 1069.6
20260906050534 12 281 0.0 0.0 0.00 0.00 0.00 99 1069.7
20260906045534 12 275 0.0 0.0 0.00 0.00 0.00 99 1069.7
20260906044530 12 276 0.0 0.0 0.00 0.00 0.00 99 1069.7
20260906043527 13 276 0.0 0.0 0.00 0.00 0.00 99 1069.7
20260906042528 13 276 0.0 0.0 0.00 0.00 0.00 99 1069.8
20260906041525 13 291 0.0 0.0 0.00 0.00 0.00 99 1069.4
20260906040526 13 288 0.0 0.0 0.00 0.00 0.00 99 1069.5
20260906035522 13 304 0.0 0.0 0.00 0.00 0.00 99 1069.6
20260906034518 13 281 0.0 0.0 0.00 0.00 0.00 99 1069.5
20260906033514 13 285 0.0 0.0 0.00 0.00 0.00 99 1069.5
20260906032512 13 286 0.0 0.0 0.00 0.00 0.00 99 1069.4
20260906031508 13 270 0.0 0.0 0.00 0.00 0.00 99 1069.3
20260906030503 13 281 0.0 0.0 0.00 0.00 0.00 99 1069.0
20260906025502 14 275 0.0 0.0 0.00 0.00 0.00 99 1069.3
20260906024501 14 275 0.0 0.0 0.00 0.00 0.00 99 1069.0
20260906023458 14 284 0.0 0.0 0.00 0.00 0.00 99 1069.2
20260906022454 14 289 0.0 0.0 0.00 0.00 0.00 99 1069.1
20260906021449 14 291 0.0 0.0 0.00 0.00 0.00 99 1069.2
20260906020444 14 290 0.0 0.0 0.00 0.00 0.00 99 1069.2
20260906015443 14 285 0.0 0.0 0.00 0.00 0.00 99 1069.3
20260906014443 15 286 0.0 0.0 0.00 0.00 0.00 99 1069.2
20260906013440 15 289 0.0 0.0 0.00 0.00 0.00 99 1069.1
20260906012436 15 293 1.6 1.6 0.00 0.00 0.00 98 1069.1
20260906011431 16 285 0.0 0.0 0.00 0.00 0.00 96 1069.2
20260906010427 16 67 1.6 1.6 0.00 0.00 0.00 97 1069.5
20260906005423 16 281 0.0 0.0 0.00 0.00 0.00 97 1069.3
20260906004422 16 283 0.0 0.0 0.00 0.00 0.00 98 1069.3
20260906003419 16 284 0.0 0.0 0.00 0.00 0.00 98 1069.2
20260906002419 16 284 0.0 0.0 0.00 0.00 0.00 97 1069.2
20260906001416 16 283 0.0 0.0 0.00 0.00 0.00 96 1068.9
20260906000411 17 283 0.0 0.0 0.00 0.00 0.00 95 1069.0
20260905235406 17 284 0.0 0.0 0.00 0.00 0.00 93 1069.1
20260905234402 17 287 0.0 0.0 0.00 0.00 0.00 93 1069.2
20260905233358 17 290 1.6 1.6 0.00 0.00 0.00 94 1068.9
20260905232354 16 284 0.0 0.0 0.00 0.00 0.00 95 1068.8
20260905231349 16 284 0.0 0.0 0.00 0.00 0.00 95 1068.7
20260905230349 17 284 0.0 0.0 0.00 0.00 0.00 94 1068.8
20260905225344 17 284 0.0 0.0 0.00 0.00 0.00 91 1068.4
20260905224341 17 284 0.0 0.0 0.00 0.00 0.00 91 1068.9
20260905223339 17 282 0.0 0.0 0.00 0.00 0.00 90 1069.0
20260905222338 18 293 0.0 0.0 0.00 0.00 0.00 89 1068.9
20260905221337 18 287 0.0 0.0 0.00 0.00 0.00 87 1068.5
20260905220334 18 296 1.6 1.6 0.00 0.00 0.00 85 1068.2
20260905215329 18 296 0.0 1.6 0.00 0.00 0.00 84 1068.0
20260905214326 20 335 1.6 1.6 0.00 0.00 0.00 79 1068.0
20260905213323 20 260 0.0 1.6 0.00 0.00 0.00 78 1068.1
20260905212324 20 94 3.2 3.2 0.00 0.00 0.00 77 1067.9
20260905211319 20 280 0.0 1.6 0.00 0.00 0.00 81 1067.9
20260905210315 20 320 1.6 1.6 0.00 0.00 0.00 83 1067.8
20260905205315 20 211 1.6 1.6 0.00 0.00 0.00 83 1067.7
20260905204311 19 146 1.6 1.6 0.00 0.00 0.00 83 1068.0
20260905203305 20 293 0.0 0.0 0.00 0.00 0.00 82 1067.9
20260905202301 20 326 6.4 8.0 0.00 0.00 0.00 79 1067.9
20260905201258 20 282 0.0 0.0 0.00 0.00 0.00 80 1067.7
20260905200254 20 301 1.6 1.6 0.00 0.00 0.00 82 1067.8
20260905195253 20 178 1.6 1.6 0.00 0.00 0.00 82 1067.6
20260905194248 20 58 3.2 3.2 0.00 0.00 0.00 81 1067.5
20260905193243 21 281 0.0 1.6 0.00 0.00 0.00 76 1067.5
20260905192241 20 290 1.6 3.2 0.00 0.00 0.00 78 1067.5
20260905191238 20 336 0.0 1.6 0.00 0.00 0.00 83 1067.4
20260905190236 19 293 0.0 1.6 0.00 0.00 0.00 86 1067.6
20260905185236 19 306 3.2 3.2 0.00 0.00 0.00 86 1067.7
20260905184235 19 304 1.6 1.6 0.00 0.00 0.00 86 1067.7
20260905183230 18 315 1.6 3.2 0.00 0.00 0.00 89 1067.7
20260905182230 19 314 1.6 3.2 0.00 0.00 0.00 86 1067.7
20260905181230 20 306 4.8 4.8 0.00 0.00 0.00 79 1067.7
20260905180226 20 348 8.0 9.7 0.00 0.00 0.00 78 1067.5
20260905175227 20 320 4.8 4.8 0.00 0.00 0.00 81 1067.8
20260905174223 20 339 4.8 8.0 0.00 0.00 0.00 80 1067.6
20260905173221 20 316 1.6 1.6 0.00 0.00 0.00 80 1067.5
20260905172220 20 293 1.6 1.6 0.00 0.00 0.00 81 1067.5
20260905171218 20 332 4.8 4.8 0.00 0.00 0.00 82 1067.5
20260905170215 20 292 1.6 1.6 0.00 0.00 0.00 80 1067.3
20260905165210 20 316 1.6 1.6 0.00 0.00 0.00 84 1067.3
20260905164210 20 316 3.2 3.2 0.00 0.00 0.00 83 1067.8
20260905163208 20 333 4.8 4.8 0.00 0.00 0.00 82 1067.7
20260905162204 20 306 1.6 1.6 0.00 0.00 0.00 78 1067.8
20260905161203 20 297 1.6 3.2 0.00 0.00 0.00 82 1067.8
20260905160201 20 336 1.6 1.6 0.00 0.00 0.00 78 1067.9
20260905155201 19 75 3.2 3.2 0.00 0.00 0.00 83 1067.9
20260905154156 18 324 4.8 4.8 0.00 0.00 0.00 84 1068.1
20260905153154 18 28 4.8 4.8 0.00 0.00 0.00 82 1068.1
20260905152149 18 92 3.2 3.2 0.00 0.00 0.00 83 1068.2
20260905151145 18 313 1.6 1.6 0.00 0.00 0.00 86 1068.2
20260905150144 17 327 8.0 9.7 0.00 0.00 0.00 87 1068.4
20260905145142 17 303 0.0 0.0 0.00 0.00 0.00 89 1068.3
20260905144142 18 328 6.4 8.0 0.00 0.00 0.00 89 1068.3
20260905143137 17 311 1.6 1.6 0.00 0.00 0.00 88 1068.3
20260905142136 17 342 3.2 4.8 0.00 0.00 0.00 91 1068.4
20260905141132 16 342 3.2 3.2 0.00 0.00 0.00 93 1068.5
20260905140132 16 304 0.0 1.6 0.00 0.00 0.00 95 1068.4
20260905135129 15 300 1.6 1.6 0.00 0.00 0.00 98 1068.4
20260905134128 15 305 0.0 1.6 0.00 0.00 0.00 99 1068.5
20260905133124 15 300 0.0 1.6 0.00 0.00 0.00 99 1068.4
20260905132124 14 291 0.0 0.0 0.00 0.00 0.00 99 1068.8
20260905131120 14 319 1.6 3.2 0.00 0.00 0.00 99 1068.7
20260905130120 14 299 0.0 0.0 0.00 0.00 0.00 99 1068.8
20260905125116 14 297 1.6 1.6 0.00 0.00 0.00 99 1068.8
20260905124114 14 291 0.0 0.0 0.00 0.00 0.00 99 1068.4
20260905123112 13 298 0.0 1.6 0.00 0.00 0.00 99 1068.3
20260905122112 13 282 0.0 0.0 0.00 0.00 0.00 99 1068.1
20260905121108 13 282 0.0 0.0 0.00 0.00 0.00 99 1068.4
20260905120108 13 293 0.0 0.0 0.00 0.00 0.00 99 1068.2
20260905115108 13 312 1.6 1.6 0.00 0.00 0.00 99 1068.1
20260905114106 13 282 1.6 1.6 0.00 0.00 0.00 99 1068.1
20260905113103 13 272 0.0 0.0 0.00 0.00 0.00 99 1067.7
20260905112059 13 283 0.0 0.0 0.00 0.00 0.00 99 1067.4
20260905111059 13 81 4.8 4.8 0.00 0.00 0.00 99 1067.5
20260905110059 13 289 1.6 1.6 0.00 0.00 0.00 99 1067.5
20260905105059 13 284 0.0 0.0 0.00 0.00 0.00 99 1067.2
20260905104054 13 284 0.0 0.0 0.00 0.00 0.00 99 1067.2
20260905103052 13 284 0.0 0.0 0.00 0.00 0.00 99 1067.3
20260905102050 13 280 0.0 0.0 0.00 0.00 0.00 99 1067.3
20260905101046 13 299 0.0 1.6 0.00 0.00 0.00 99 1067.2
20260905100043 13 284 0.0 0.0 0.00 0.00 0.00 99 1067.2
20260905095038 12 284 0.0 0.0 0.00 0.00 0.00 99 1067.1
20260905094038 12 286 0.0 0.0 0.00 0.00 0.00 99 1067.1
20260905093035 12 295 0.0 0.0 0.00 0.00 0.00 99 1067.2
20260905092031 12 298 0.0 1.6 0.00 0.00 0.00 99 1067.2
20260905091030 12 296 0.0 0.0 0.00 0.00 0.00 99 1067.2
20260905090026 12 301 1.6 1.6 0.00 0.00 0.00 99 1067.1
20260905085020 12 286 0.0 0.0 0.00 0.00 0.00 99 1067.2
20260905084020 12 287 0.0 0.0 0.00 0.00 0.00 99 1067.2
20260905083018 12 284 0.0 0.0 0.00 0.00 0.00 99 1067.2
20260905082015 12 284 0.0 0.0 0.00 0.00 0.00 99 1067.1
20260905081014 12 285 0.0 0.0 0.00 0.00 0.00 99 1067.1
20260905080009 12 285 0.0 0.0 0.00 0.00 0.00 99 1067.5
20260905075008 12 286 0.0 0.0 0.00 0.00 0.00 99 1067.4
20260905074005 12 286 0.0 0.0 0.00 0.00 0.00 99 1067.3